K5EBQ Weather Reports


Display with metric or nautical units.
time (UTC)temp
F
wind
direction
speed
MPH
gust
MPH
rain 1hr
in
rain 24hr
in
rain mn
in
humidity
%
barometer
mb
20260901071522 81 162 0.0 0.0 0.00 0.00 0.00 87 1012.8
20260901070020 81 162 0.0 0.0 0.00 0.00 0.00 86 1012.7
20260901064519 82 162 0.0 0.0 0.00 0.00 0.00 85 1012.7
20260901063022 82 162 0.0 0.0 0.00 0.00 0.00 85 1012.8
20260901061517 82 162 0.0 0.0 0.00 0.00 0.00 84 1012.9
20260901060033 82 162 0.0 0.0 0.00 0.00 0.00 84 1013.0
20260901054515 83 162 0.0 0.0 0.00 0.00 0.00 83 1012.8
20260901053011 83 162 0.0 0.0 0.00 0.00 0.00 82 1012.7
20260901051509 83 162 0.0 0.0 0.00 0.00 0.00 82 1012.7
20260901050007 83 162 0.0 0.0 0.00 0.00 0.00 81 1012.6
20260901044507 84 162 0.0 0.0 0.00 0.00 0.00 81 1012.6
20260901043008 84 162 0.0 0.0 0.00 0.00 0.00 80 1012.4
20260901041506 84 162 0.0 0.0 0.00 0.00 0.00 79 1012.5
20260901040006 84 162 0.0 0.0 0.00 0.00 0.00 78 1012.5
20260901034504 84 159 0.0 0.0 0.00 0.00 0.00 77 1012.5
20260901033004 84 158 0.0 0.0 0.00 0.00 0.00 77 1012.2
20260901031505 85 158 0.0 0.0 0.00 0.00 0.00 76 1012.1
20260901030002 85 158 0.0 0.0 0.00 0.00 0.00 75 1011.9
20260901024502 85 158 0.0 0.0 0.00 0.00 0.00 75 1011.7
20260901023001 85 158 0.0 0.0 0.00 0.00 0.00 74 1011.4
20260901021503 86 158 0.0 0.0 0.00 0.00 0.00 73 1011.3
20260901020101 86 158 0.0 0.0 0.00 0.00 0.00 72 1011.1
20260901014600 87 158 0.0 0.0 0.00 0.00 0.00 71 1011.0
20260901013103 87 159 0.0 0.0 0.00 0.00 0.00 70 1011.0
20260901011600 88 159 0.0 0.0 0.00 0.00 0.00 70 1011.0
20260901010114 89 159 0.0 0.0 0.00 0.00 0.00 69 1010.9
20260901004558 90 159 0.0 0.0 0.00 0.00 0.00 67 1010.9
20260901003059 90 159 0.0 0.0 0.00 0.00 0.00 66 1011.0
20260901001557 91 159 0.0 0.0 0.00 0.00 0.00 65 1011.0
20260901000055 91 158 0.0 0.0 0.00 0.00 0.00 63 1011.1
20260831234555 91 119 0.0 0.0 0.00 0.00 0.00 62 1011.1
20260831233054 91 167 0.0 0.0 0.00 0.00 0.00 63 1011.2
20260831231556 91 177 0.0 0.0 0.00 0.00 0.00 62 1011.0
20260831230109 91 198 0.0 0.0 0.00 0.00 0.00 62 1011.0
20260831224554 91 57 0.0 0.0 0.00 0.00 0.00 61 1011.1
20260831223102 90 157 0.0 0.0 0.00 0.00 0.00 59 1011.2
20260831221556 90 167 0.0 0.0 0.00 0.00 0.00 60 1011.2
20260831220050 90 186 0.0 0.0 0.00 0.00 0.00 59 1011.3
20260831214555 90 177 0.0 0.0 0.00 0.00 0.00 60 1011.4
20260831213047 91 163 0.0 0.0 0.00 0.00 0.00 60 1011.7
20260831211544 91 147 0.0 0.0 0.00 0.00 0.00 62 1011.7
20260831210042 91 165 0.0 0.0 0.00 0.00 0.00 64 1011.9
20260831204541 91 194 0.0 31.0 0.00 0.00 0.00 64 1012.0
20260831203041 92 133 4.0 28.0 0.00 0.00 0.00 64 1012.1
20260831201539 94 165 0.0 45.0 0.00 0.00 0.00 61 1012.3
20260831200039 96 178 8.0 37.0 0.00 0.00 0.00 55 1012.3
20260831194550 95 162 0.0 0.0 0.00 0.00 0.00 55 1012.3
20260831193038 96 94 0.0 0.0 0.00 0.00 0.00 53 1012.7
20260831191532 95 221 1.0 5.0 0.00 0.00 0.00 57 1012.8
20260831190031 93 109 0.0 4.0 0.00 0.00 0.00 58 1013.0
20260831184530 93 98 0.0 4.0 0.00 0.00 0.00 59 1013.2
20260831183033 94 104 0.0 8.0 0.00 0.00 0.00 58 1013.3
20260831181530 94 239 0.0 8.0 0.00 0.00 0.00 58 1013.4
20260831180028 95 325 0.0 0.0 0.00 0.00 0.00 58 1013.6
20260831174529 94 129 0.0 10.0 0.00 0.00 0.00 58 1013.9
20260831173028 95 125 0.0 31.0 0.00 0.00 0.00 57 1013.9
20260831171525 95 5 0.0 0.0 0.00 0.00 0.00 60 1014.0
20260831170035 93 296 0.0 0.0 0.00 0.00 0.00 60 1014.1
20260831164524 93 36 0.0 0.0 0.00 0.00 0.00 61 1014.3
20260831163022 94 30 0.0 0.0 0.00 0.00 0.00 61 1014.3
20260831161519 94 360 0.0 0.0 0.00 0.00 0.00 60 1014.3
20260831160016 92 92 0.0 0.0 0.00 0.00 0.00 62 1014.4
20260831154527 92 96 0.0 0.0 0.00 0.00 0.00 61 1014.5
20260831153010 90 97 0.0 0.0 0.00 0.00 0.00 65 1014.3
20260831151507 89 129 0.0 0.0 0.00 0.00 0.00 68 1014.4
20260831150005 88 130 0.0 0.0 0.00 0.00 0.00 72 1014.3
20260831144503 89 194 0.0 0.0 0.00 0.00 0.00 73 1014.2
20260831143101 88 194 0.0 0.0 0.00 0.00 0.00 77 1014.2
20260831141558 87 194 0.0 0.0 0.00 0.00 0.00 78 1014.1
20260831140057 86 194 0.0 0.0 0.00 0.00 0.00 81 1014.0
20260831134551 85 194 0.0 0.0 0.00 0.00 0.00 82 1013.9
20260831133049 84 194 0.0 0.0 0.00 0.00 0.00 85 1013.8
20260831131544 82 194 0.0 0.0 0.00 0.00 0.00 88 1013.6
20260831130048 80 194 0.0 0.0 0.00 0.00 0.00 93 1013.5
20260831124541 78 194 0.0 0.0 0.00 0.00 0.00 95 1013.5
20260831123042 77 194 0.0 0.0 0.00 0.00 0.00 94 1013.3
20260831121544 77 194 0.0 0.0 0.00 0.00 0.00 94 1013.1
20260831120037 77 194 0.0 0.0 0.00 0.00 0.00 94 1012.7
20260831114537 77 194 0.0 0.0 0.00 0.00 0.00 94 1012.7
20260831113037 77 194 0.0 0.0 0.00 0.00 0.00 94 1012.6
20260831111539 77 194 0.0 0.0 0.00 0.00 0.00 93 1012.6
20260831110033 78 194 0.0 0.0 0.00 0.00 0.00 93 1012.6
20260831104535 78 194 0.0 0.0 0.00 0.00 0.00 93 1012.6
20260831103031 78 194 0.0 0.0 0.00 0.00 0.00 92 1012.6
20260831101530 78 194 0.0 0.0 0.00 0.00 0.00 92 1012.7
20260831100030 78 194 0.0 0.0 0.00 0.00 0.00 91 1012.7
20260831094534 79 194 0.0 0.0 0.00 0.00 0.00 91 1012.7
20260831093032 79 194 0.0 0.0 0.00 0.00 0.00 91 1012.6
20260831091525 79 194 0.0 0.0 0.00 0.00 0.00 90 1012.5
20260831090024 79 194 0.0 0.0 0.00 0.00 0.00 90 1012.5
20260831084535 79 194 0.0 0.0 0.00 0.00 0.00 90 1012.7
20260831083037 80 194 0.0 0.0 0.00 0.00 0.00 90 1012.6
20260831081523 80 194 0.0 0.0 0.00 0.00 0.00 89 1012.6
20260831080027 80 194 0.0 0.0 0.00 0.00 0.00 89 1012.7
20260831074517 81 194 0.0 0.0 0.00 0.00 0.00 88 1012.7
20260831073020 81 194 0.0 0.0 0.00 0.00 0.00 88 1012.8